Regional Weather Roundup
Issued by NWS Boston, MA

Home | Current Version | Previous Version | Text Only | Print | Product List | Glossary On
Versions: 1 2 3 4 5 6 7 8 9 10 11 12 13 14 15 16 17 18 19 20 21 22 23 24 25 26 27
000
ASUS41 KBOX 222110
RWRBOX

REGIONAL WEATHER ROUNDUP
NATIONAL WEATHER SERVICE TAUNTON MA
400 PM EST SUN JAN 22 2017

NOTE:  "FAIR" INDICATES FEW OR NO CLOUDS BELOW 12,000 FEET WITH NO
SIGNIFICANT WEATHER AND/OR OBSTRUCTIONS TO VISIBILITY.

MAZALL-222200-
EASTERN MASSACHUSETTS

CITY           SKY/WX    TMP DP  RH WIND       PRES   REMARKS
BOSTON         LGT RAIN  41  41 100 NE17      29.86R FOG
BEVERLY        LGT RAIN  40  40 100 NE12      29.86R FOG
LAWRENCE       CLOUDY    37  36  96 NE12      29.89R FOG     WCI  29
BEDFORD        CLOUDY    39  35  86 NE10      29.86R FOG
BLUE HILL        N/A     39  39 100 NE14G28   29.82R WCI  31
NORWOOD        LGT RAIN  43  41  93 NE9       29.85R FOG
MARSHFIELD     MIX PCPN  45  43  93 NE14G20   29.84R
PLYMOUTH       CLOUDY    44  41  89 NE12      29.82S
TAUNTON        CLOUDY    46  41  82 NE9G17    29.82R
NEW BEDFORD    CLOUDY    48  41  76 NE13      29.81R
$$

MAZALL-222200-
CAPE COD AND THE ISLANDS

CITY           SKY/WX    TMP DP  RH WIND       PRES   REMARKS
FALMOUTH       CLOUDY    45  43  93 MISG      29.82R
HYANNIS        CLOUDY    46  41  82 NE9       29.80R
CHATHAM        CLOUDY    46  43  89 E13       29.83R
PROVINCETOWN   CLOUDY    44  41  89 NE16      29.84R
NANTUCKET      CLOUDY    46  41  82 NE17G23   29.79R
MARTHAS VNYRD  CLOUDY    48  41  76 NE15      29.78R
$$

MAZALL-222200-
CENTRAL AND WESTERN MASSACHUSETTS

CITY           SKY/WX    TMP DP  RH WIND       PRES   REMARKS
WORCESTER      FOG       37  36  96 NE13G22   29.82R VSB<1/4 WCI  29
FITCHBURG      CLOUDY    39  37  92 NE8       29.88R FOG
ORANGE         CLOUDY    39  39 100 NE6       29.84R
SPRINGFIELD    CLOUDY    46  39  77 NE10      29.79S
WESTFIELD      CLOUDY    44  40  85 N10       29.79S
NORTH ADAMS    CLOUDY    44  38  79 E14       29.77R
PITTSFIELD     CLOUDY    43  39  86 NE8       29.75R
$$

RIZALL-222200-
RHODE ISLAND

CITY           SKY/WX    TMP DP  RH WIND       PRES   REMARKS
PROVIDENCE     CLOUDY    47  40  76 NE10      29.81R
NEWPORT        CLOUDY    47  42  83 NE15G22   29.79R
SMITHFIELD     CLOUDY    43  41  93 NE10      29.82R
WESTERLY       CLEAR     52  39  61 NE14G22   29.75S
$$

CTZALL-222200-
CONNECTICUT

CITY           SKY/WX    TMP DP  RH WIND       PRES   REMARKS
BRADLEY INTL   MOCLDY    47  40  76 N10       29.78R
HARTFORD       CLOUDY    50  41  71 N10       29.76R
BRIDGEPORT     CLOUDY    46  40  79 NE10      29.74R
DANBURY        CLOUDY    52  43  71 E10       29.74R
GROTON         CLEAR     52  41  66 NE15      29.73S
NEW HAVEN      CLOUDY    47  41  80 E9        29.73S
CHESTER        MOCLDY    52  41  66 NE9       29.73S
MERIDEN        CLOUDY    55  42  61 N12       29.74S
WILLIMANTIC    CLOUDY    50  41  71 E10       29.78R
OXFORD         CLOUDY    50  39  66 E9G16     29.73S
$$

MEZ002-015-021-024-NHZ003-005-008-011-012-014-VTZ005-008-222200-
NORTHERN NEW ENGLAND

CITY           SKY/WX    TMP DP  RH WIND       PRES   REMARKS
PORTLAND ME    CLOUDY    37  29  72 VRB5      29.94R
BANGOR ME      CLOUDY    34  23  64 NE9       29.98R WCI  27
CONCORD NH     CLOUDY    36  31  82 NE8       29.89R WCI  30
MANCHESTER NH  NOT AVBL
NASHUA NH      NOT AVBL
PORTSMOUTH NH  CLOUDY    37  33  86 NE10      29.89R WCI  29
JAFFREY NH     NOT AVBL
KEENE NH       NOT AVBL
BURLINGTON VT  CLOUDY    35  32  88 N8        29.86R WCI  29
MT. WASHINGTON FOG       27  27 100 NW35        N/A  VSB 1/4 WCI   9
$$

NYZ052-076-222200-
EASTERN NEW YORK

CITY           SKY/WX    TMP DP  RH WIND       PRES   REMARKS
ALBANY         CLOUDY    42  37  82 N6        29.77S
NEW YORK CITY  LGT RAIN  45  41  86 NE12      29.71R FOG
$$

ANZALL-222200-
MARINE OBSERVATIONS

STATION/POSITION TIME  TEMP    WIND        PRES    VSBY  WAVE
                       AIR SEA DIR/SP/G                  HT/PER
                 (UTC) (F)     (DEG/KT/KT) (MB)    (MI)  (FT/S)
BOSTON BUOY      1950   44 44   50/ 19/ 21 1009.1          4/11
BUZZARDS BAY     2000   44      40/ 18/ 20 1008.2R
NANTUCKET SOUND  1950   45 43   40/ 14/ 16 1007.7          1/13
MASS BAY-STELLWA 2004   42 44   50/ 19/ 23 1010.2R  1 7/8  5/ 6
ISLE OF SHOALS   2000   38      30/ 19/ 21 1011.2R
S OF BLOCK IS    2055      45                N/A           4/13
$$

......................KEY.........................
  SKY/WX - SKY CONDITION/PRESENT WEATHER
  TMP    - TEMPERATURE IN FAHRENHEIT
  DWPT   - DEWPOINT IN FAHRENHEIT
  RH     - RELATIVE HUMIDITY IN PERCENT
  WIND   - DIRECTION AND SPEED IN MPH
  PRES   - MEAN SEA LEVEL PRESSURE IN INCHES OF HG
  WCI    - WIND CHILL INDEX
  VSB    - VISIBILITY IN MILES
  HX     - HEAT INDEX
  TC     - TEMPERATURE IN CELSIUS
  VRB    - VARIABLE WIND DIRECTION
  N/A    - NOT AVAILABLE




USA.gov is the U.S. government's official web portal to all federal, state and local government web resources and services.